Beckley, WV

5:37 PM EST on November 22, 2019 (GMT -0500)
Raleigh County Memorial

Weather History for KBKW - October, 2019

Change the Weather History Date:

Tuesday, October 22, 2019

  Actual Average Record
Temperature  
Mean Temperature 55 °F 52 °F  
Max Temperature 63 °F 62 °F 80 °F (1909)
Min Temperature 47 °F 41 °F 10 °F (1913)
Degree Days  
Heating Degree Days 10 14  
Month to date heating degree days 170 239  
Since 1 July heating degree days 180 373  
Cooling Degree Days 0 0  
Month to date cooling degree days 40 2  
Year to date cooling degree days 948 552  
Growing Degree Days 5 (Base 50)    
Moisture  
Dew Point 50 °F    
Average Humidity 80    
Maximum Humidity 94    
Minimum Humidity 47    
Precipitation  
Precipitation 0.48 in 0.08 in 1.49 in (1990)
Month to date precipitation 4.76 1.77  
Year to date precipitation 36.58 34.44  
Snow  
Snow - 0.00 in 0.50 in (1913)
Month to date snowfall 0.0 0.1  
Since 1 September snowfall 0.0 0.1  
Snow Depth 0.00 in    
Sea Level Pressure  
Sea Level Pressure 29.86 in    
Wind  
Wind Speed 9 mph ()    
Max Wind Speed 21 mph    
Max Gust Speed 28 mph    
Visibility 7.1 miles    
Events Rain    
T = Trace of Precipitation, MM = Missing Value Source: Averaged Metar Reports

Daily Weather History Graph

Daily Weather History Graph

Search for Another Location

Airport or City:

Astronomy

Oct. 22, 2019 Rise Set
Actual Time 7:39 AM EDT 6:37 PM EDT
Civil Twilight 7:12 AM EDT 7:04 PM EDT
Nautical Twilight 6:42 AM EDT 7:35 PM EDT
Astronomical Twilight 6:11 AM EDT 8:05 PM EDT
Moon 12:56 AM EDT 3:37 PM EDT
Length of Visible Light 11h 51m
Length of Day
10h 58m
Last Quarter, 37% of the Moon is Illuminated
Oct 22
Last Quarter
Oct 27
New
Nov 4
First Quarter
Nov 12
Full
Nov 19
Last Quarter

Hourly Weather History & Observations

Time (EDT) Temp. Dew Point Humidity Pressure Visibility Wind Dir Wind Speed Gust Speed Precip Events Conditions
12:51 AM 62.1 °F 54.0 °F 75% 29.88 in 10.0 mi SSE 13.8 mph 21.9 mph N/A   Scattered Clouds
1:51 AM 62.1 °F 54.0 °F 75% 29.86 in 10.0 mi SE 11.5 mph 24.2 mph N/A   Scattered Clouds
2:51 AM 62.1 °F 54.0 °F 75% 29.81 in 10.0 mi SE 13.8 mph 19.6 mph N/A   Partly Cloudy
3:51 AM 62.1 °F 55.0 °F 78% 29.81 in 10.0 mi SSE 10.4 mph 20.7 mph N/A   Overcast
4:51 AM 62.1 °F 55.0 °F 78% 29.80 in 10.0 mi South 17.3 mph 27.6 mph N/A   Overcast
5:51 AM 63.0 °F 55.0 °F 75% 29.78 in 10.0 mi SSE 16.1 mph 21.9 mph N/A   Overcast
6:51 AM 63.0 °F 55.0 °F 75% 29.77 in 10.0 mi SSE 8.1 mph - 0.00 in   Overcast
7:16 AM 63.0 °F 55.0 °F 75% 29.84 in 10.0 mi SSE 10.4 mph - N/A   Mostly Cloudy
7:25 AM 63.0 °F 55.0 °F 75% 29.85 in 10.0 mi SSE 12.7 mph - N/A   Overcast
7:42 AM 62.1 °F 55.9 °F 80% 29.85 in 10.0 mi SSE 8.1 mph - N/A   Overcast
7:51 AM 63.0 °F 55.9 °F 78% 29.79 in 10.0 mi SSE 6.9 mph - N/A   Overcast
8:24 AM 60.1 °F 55.9 °F 86% 29.87 in 2.5 mi NW 17.3 mph - 0.03 in Rain Heavy Rain
8:32 AM 57.0 °F 54.0 °F 89% 29.88 in 3.0 mi NW 13.8 mph - 0.08 in Rain Rain
8:37 AM 55.9 °F 53.1 °F 90% 29.89 in 4.0 mi NW 12.7 mph - 0.08 in Rain Rain
8:44 AM 55.0 °F 53.1 °F 93% 29.89 in 1.8 mi NW 11.5 mph 20.7 mph 0.11 in Rain Heavy Rain
8:51 AM 55.0 °F 52.0 °F 89% 29.86 in 2.0 mi WNW 6.9 mph - 0.14 in Rain Light Rain
9:00 AM 55.0 °F 52.0 °F 89% 29.91 in 4.0 mi WNW 6.9 mph - 0.01 in Rain Light Rain
9:45 AM 53.6 °F 51.8 °F 94% 29.92 in 2.5 mi West 8.1 mph - N/A Rain Light Rain
9:48 AM 53.6 °F 51.8 °F 94% 29.92 in 1.8 mi West 6.9 mph - 0.05 in Rain Rain
9:51 AM 54.0 °F 51.1 °F 90% 29.87 in 1.8 mi West 8.1 mph - 0.06 in Rain Rain
10:03 AM 54.0 °F 51.1 °F 90% 29.91 in 2.0 mi West 6.9 mph - 0.05 in Rain Light Rain
10:06 AM 54.0 °F 51.1 °F 90% 29.92 in 3.0 mi West 8.1 mph - 0.05 in Rain Rain
10:31 AM 54.0 °F 52.0 °F 93% 29.91 in 3.0 mi WSW 3.5 mph - 0.07 in Rain Light Rain
10:51 AM 54.0 °F 51.1 °F 90% 29.85 in 10.0 mi Calm Calm - 0.08 in Rain Light Rain
11:22 AM 54.0 °F 51.1 °F 90% 29.89 in 2.0 mi SSW 4.6 mph - 0.03 in Rain Rain
11:25 AM 54.0 °F 52.0 °F 93% 29.89 in 1.8 mi SW 4.6 mph - 0.04 in Rain Rain
11:35 AM 54.0 °F 52.0 °F 93% 29.90 in 2.0 mi SW 5.8 mph - 0.07 in Rain Rain
11:51 AM 54.0 °F 51.1 °F 90% 29.86 in 3.0 mi Variable 5.8 mph - 0.14 in Rain Rain
12:04 PM 54.0 °F 51.1 °F 90% 29.90 in 4.0 mi SW 5.8 mph - 0.02 in Rain Rain
12:21 PM 54.0 °F 52.0 °F 93% 29.89 in 10.0 mi West 5.8 mph - 0.03 in Rain Light Rain
12:51 PM 54.0 °F 51.1 °F 90% 29.83 in 5.0 mi South 4.6 mph - 0.04 in Rain Light Rain
12:59 PM 54.0 °F 51.1 °F 90% 29.88 in 7.0 mi WSW 5.8 mph - 0.00 in Rain Light Rain
1:41 PM 55.0 °F 51.1 °F 86% 29.86 in 10.0 mi WSW 6.9 mph - 0.02 in   Overcast
1:43 PM 55.9 °F 52.0 °F 87% 29.86 in 10.0 mi SW 9.2 mph - 0.02 in   Mostly Cloudy
1:51 PM 57.0 °F 52.0 °F 83% 29.81 in 10.0 mi WSW 11.5 mph 18.4 mph 0.02 in   Mostly Cloudy
1:58 PM 55.9 °F 50.0 °F 80% 29.86 in 10.0 mi WSW 9.2 mph 18.4 mph N/A   Scattered Clouds
2:51 PM 60.1 °F 50.0 °F 69% 29.79 in 10.0 mi WSW 9.2 mph - N/A   Scattered Clouds
3:51 PM 61.0 °F 45.0 °F 56% 29.79 in 10.0 mi West 16.1 mph 21.9 mph N/A   Scattered Clouds
4:51 PM 61.0 °F 42.1 °F 50% 29.80 in 10.0 mi WNW 11.5 mph - N/A   Mostly Cloudy
5:51 PM 59.0 °F 39.9 °F 49% 29.82 in 10.0 mi West 10.4 mph - N/A   Mostly Cloudy
6:51 PM 55.9 °F 39.0 °F 53% 29.85 in 10.0 mi WNW 4.6 mph - N/A   Clear
7:51 PM 52.0 °F 39.0 °F 61% 29.88 in 10.0 mi West 3.5 mph - N/A   Clear
8:51 PM 52.0 °F 37.9 °F 59% 29.91 in 10.0 mi WNW 4.6 mph - N/A   Clear
9:51 PM 50.0 °F 37.9 °F 63% 29.94 in 10.0 mi West 5.8 mph - N/A   Clear
10:51 PM 48.9 °F 37.9 °F 66% 29.96 in 10.0 mi West 5.8 mph - N/A   Clear
11:51 PM 48.9 °F 37.0 °F 64% 29.96 in 10.0 mi West 6.9 mph - N/A   Clear